Location: Altleiningen
(49.5078°N, 8.0741°E)
Time: 23:07:48
(UTC+00:00)

Cosmos 2218 Rocket - Pass Details

Date: 03 March 2021
Orbit: 955 x 1007 km, 82.9° (Epoch: 12 April)

Event Time Altitude Azimuth Distance (km) Brightness Sun altitude
Rises 18:48:23 0° 170° (S) 3,722 6.9 -16.1°
Reaches altitude 10° 18:50:58 10° 165° (SSE) 2,778 6.1 -16.5°
Maximum altitude 18:57:07 52° 91° (E) 1,235 4.1 -17.5°
Drops below altitude 10° 19:03:17 10° 17° (NNE) 2,788 6.3 -18.5°
Sets 19:05:53 0° 13° (NNE) 3,737 7.1 -18.9°
